GW3580 Weather Reports


time (UTC)temp
C
wind
direction
speed
KPH
gust
KPH
rain 1hr
cm
rain 24hr
cm
rain mn
cm
humidity
%
barometer
mb
20260509090329 17 266 3.2 3.2 0.00 0.00 0.00 74 1012.8
20260509085826 17 247 4.8 6.4 0.00 0.00 0.00 74 1012.7
20260509085324 17 274 1.6 1.6 0.00 0.00 0.00 74 1012.7
20260509084820 17 258 1.6 1.6 0.00 0.00 0.00 73 1012.8
20260509084317 17 278 1.6 3.2 0.00 0.00 0.00 73 1012.5
20260509083815 17 27 0.0 0.0 0.00 0.00 0.00 73 1012.7
20260509083311 17 257 0.0 1.6 0.00 0.00 0.00 72 1012.9
20260509082808 17 236 1.6 3.2 0.00 0.00 0.00 72 1012.8
20260509082307 17 281 1.6 1.6 0.00 0.00 0.00 72 1013.0
20260509081802 17 276 0.0 1.6 0.00 0.00 0.00 72 1012.9
20260509081259 18 326 1.6 1.6 0.00 0.00 0.00 71 1013.0
20260509080757 18 247 1.6 1.6 0.00 0.00 0.00 72 1012.8
20260509080255 18 236 1.6 3.2 0.00 0.00 0.00 72 1012.8
20260509075753 18 246 4.8 6.4 0.00 0.00 0.00 71 1012.9
20260509075249 18 260 3.2 3.2 0.00 0.00 0.00 71 1013.0
20260509074746 18 257 3.2 3.2 0.00 0.00 0.00 71 1013.2
20260509074244 18 274 3.2 3.2 0.00 0.00 0.00 71 1013.1
20260509073740 18 277 1.6 3.2 0.00 0.00 0.00 71 1013.0
20260509073237 18 255 1.6 1.6 0.00 0.00 0.00 71 1012.8
20260509072733 18 1 0.0 0.0 0.00 0.00 0.00 70 1013.0
20260509072230 18 257 1.6 1.6 0.00 0.00 0.00 70 1013.0
20260509071727 18 254 3.2 3.2 0.00 0.00 0.00 70 1013.2
20260509071224 19 248 1.6 1.6 0.00 0.00 0.00 69 1013.0
20260509070721 19 267 1.6 1.6 0.00 0.00 0.00 68 1013.0
20260509070217 19 251 1.6 3.2 0.00 0.00 0.00 68 1013.0
20260509065714 19 268 1.6 3.2 0.00 0.00 0.00 67 1013.0
20260509065210 19 275 3.2 3.2 0.00 0.00 0.00 67 1012.9
20260509064707 20 269 3.2 3.2 0.00 0.00 0.00 67 1013.0
20260509064204 20 247 3.2 3.2 0.00 0.00 0.00 67 1013.1
20260509063701 20 265 4.8 6.4 0.00 0.00 0.00 67 1013.0
20260509063158 20 240 9.7 12.9 0.00 0.00 0.00 67 1012.9
20260509062655 20 268 1.6 1.6 0.00 0.00 0.00 67 1012.9
20260509062152 20 260 3.2 3.2 0.00 0.00 0.00 66 1012.9
20260509061649 20 231 3.2 6.4 0.00 0.00 0.00 66 1012.9
20260509061147 20 259 1.6 3.2 0.00 0.00 0.00 65 1012.9
20260509060644 20 244 3.2 3.2 0.00 0.00 0.00 65 1012.9
20260509060140 20 267 1.6 3.2 0.00 0.00 0.00 65 1012.8
20260509055635 20 256 3.2 3.2 0.00 0.00 0.00 65 1012.9
20260509055131 20 254 3.2 3.2 0.00 0.00 0.00 65 1012.8
20260509054628 20 269 0.0 0.0 0.00 0.00 0.00 65 1012.6
20260509054126 20 18 3.2 3.2 0.00 0.00 0.00 65 1012.7
20260509053624 20 5 0.0 0.0 0.00 0.00 0.00 64 1012.7
20260509053121 20 256 0.0 0.0 0.00 0.00 0.00 63 1012.8
20260509052619 20 255 3.2 3.2 0.00 0.00 0.00 63 1012.7
20260509052116 20 217 0.0 1.6 0.00 0.00 0.00 62 1012.9
20260509051614 20 216 0.0 0.0 0.00 0.00 0.00 63 1012.8
20260509051111 20 199 0.0 0.0 0.00 0.00 0.00 62 1012.7
20260509050608 20 207 0.0 0.0 0.00 0.00 0.00 62 1012.6
20260509050104 20 207 0.0 0.0 0.00 0.00 0.00 61 1012.7
20260509045602 20 207 0.0 0.0 0.00 0.00 0.00 60 1012.6
20260509045058 20 207 0.0 0.0 0.00 0.00 0.00 60 1012.6
20260509044555 20 206 0.0 0.0 0.00 0.00 0.00 60 1012.6
20260509044048 20 206 0.0 0.0 0.00 0.00 0.00 59 1012.3
20260509043544 21 206 0.0 0.0 0.00 0.00 0.00 58 1012.6
20260509043039 21 234 0.0 0.0 0.00 0.00 0.00 58 1012.4
20260509042536 21 239 0.0 0.0 0.00 0.00 0.00 57 1012.4
20260509042032 21 240 0.0 1.6 0.00 0.00 0.00 55 1012.3
20260509041529 21 241 0.0 0.0 0.00 0.00 0.00 54 1012.5
20260509041027 21 247 0.0 1.6 0.00 0.00 0.00 52 1012.2
20260509040525 22 254 1.6 1.6 0.00 0.00 0.00 51 1012.1
20260509040021 22 260 1.6 1.6 0.00 0.00 0.00 51 1012.3
20260509035518 22 257 0.0 1.6 0.00 0.00 0.00 50 1012.1
20260509035015 22 257 0.0 1.6 0.00 0.00 0.00 48 1011.9
20260509034513 22 261 0.0 1.6 0.00 0.00 0.00 46 1012.3
20260509034010 22 259 1.6 1.6 0.00 0.00 0.00 45 1012.0
20260509033506 22 327 1.6 1.6 0.00 0.00 0.00 43 1012.0
20260509032957 22 341 0.0 0.0 0.00 0.00 0.00 43 1012.2
20260509032455 22 322 0.0 0.0 0.00 0.00 0.00 42 1012.1
20260509031952 23 1 0.0 0.0 0.00 0.00 0.00 42 1012.1
20260509031449 23 2 0.0 0.0 0.00 0.00 0.00 41 1011.9
20260509030947 23 11 0.0 0.0 0.00 0.00 0.00 41 1011.8
20260509030445 24 24 0.0 0.0 0.00 0.00 0.00 40 1011.8
20260509025941 24 260 0.0 1.6 0.00 0.00 0.00 41 1011.9
20260509025437 25 245 3.2 6.4 0.00 0.00 0.00 40 1011.7
20260509024932 25 267 1.6 3.2 0.00 0.00 0.00 41 1011.6
20260509024429 25 265 1.6 1.6 0.00 0.00 0.00 41 1011.8
20260509023926 25 238 4.8 6.4 0.00 0.00 0.00 40 1011.7
20260509023423 26 247 1.6 1.6 0.00 0.00 0.00 39 1011.5
20260509022920 26 232 1.6 1.6 0.00 0.00 0.00 39 1011.6
20260509022417 27 249 1.6 1.6 0.00 0.00 0.00 38 1011.7
20260509021914 27 241 3.2 3.2 0.00 0.00 0.00 36 1011.4
20260509021411 27 256 1.6 1.6 0.00 0.00 0.00 35 1011.6
20260509020908 28 247 0.0 1.6 0.00 0.00 0.00 34 1011.4
20260509020407 28 227 0.0 1.6 0.00 0.00 0.00 32 1011.5
20260509015903 28 227 3.2 3.2 0.00 0.00 0.00 31 1011.4
20260509015402 28 254 1.6 3.2 0.00 0.00 0.00 29 1011.4
20260509014858 28 219 1.6 1.6 0.00 0.00 0.00 30 1011.5
20260509014355 28 228 3.2 3.2 0.00 0.00 0.00 31 1011.3
20260509013851 29 267 1.6 1.6 0.00 0.00 0.00 30 1011.5
20260509013348 29 251 3.2 3.2 0.00 0.00 0.00 29 1011.4
20260509012844 29 228 3.2 3.2 0.00 0.00 0.00 27 1011.6
20260509012341 29 75 6.4 8.0 0.00 0.00 0.00 26 1011.5
20260509011838 30 227 1.6 1.6 0.00 0.00 0.00 27 1011.4
20260509011336 30 246 4.8 6.4 0.00 0.00 0.00 28 1011.7
20260509010833 30 234 3.2 3.2 0.00 0.00 0.00 27 1011.5
20260509010330 30 257 1.6 3.2 0.00 0.00 0.00 25 1011.6
20260509005827 30 296 3.2 3.2 0.00 0.00 0.00 25 1011.6
20260509005325 30 177 3.2 3.2 0.00 0.00 0.00 26 1011.7
20260509004820 30 260 1.6 1.6 0.00 0.00 0.00 24 1011.7
20260509004316 30 214 3.2 3.2 0.00 0.00 0.00 27 1011.7
20260509003814 30 245 3.2 6.4 0.00 0.00 0.00 27 1011.8
20260509003312 30 51 1.6 1.6 0.00 0.00 0.00 27 1011.8
20260509002809 30 225 6.4 8.0 0.00 0.00 0.00 29 1011.6
20260509002307 30 275 4.8 6.4 0.00 0.00 0.00 30 1011.8
20260509001804 31 273 3.2 3.2 0.00 0.00 0.00 30 1011.8
20260509001259 31 255 4.8 6.4 0.00 0.00 0.00 28 1012.0
20260509000757 30 266 4.8 6.4 0.00 0.00 0.00 26 1011.9
20260509000256 30 254 3.2 8.0 0.00 0.00 0.00 29 1011.9
20260508235751 31 243 3.2 6.4 0.00 0.00 0.00 30 1012.1
20260508235248 30 271 8.0 9.7 0.00 0.00 0.00 30 1011.9
20260508234745 30 266 4.8 8.0 0.00 0.00 0.00 29 1011.9
20260508234241 30 254 4.8 6.4 0.00 0.00 0.00 28 1012.2
20260508233735 30 248 4.8 6.4 0.00 0.00 0.00 28 1012.1
20260508233233 30 226 11.3 12.9 0.00 0.00 0.00 28 1012.0
20260508232730 30 256 11.3 12.9 0.00 0.00 0.00 28 1012.3
20260508232226 30 245 9.7 11.3 0.00 0.00 0.00 27 1012.2
20260508231725 30 234 9.7 9.7 0.00 0.00 0.00 27 1012.5
20260508231221 30 267 11.3 14.5 0.00 0.00 0.00 27 1012.4
20260508230718 31 1 3.2 3.2 0.00 0.00 0.00 27 1012.3
20260508230214 30 292 8.0 11.3 0.00 0.00 0.00 26 1012.4
20260508225712 30 278 9.7 14.5 0.00 0.00 0.00 27 1012.5
20260508225208 30 261 6.4 11.3 0.00 0.00 0.00 26 1012.6
20260508224706 30 221 8.0 9.7 0.00 0.00 0.00 26 1012.6
20260508224203 30 275 8.0 9.7 0.00 0.00 0.00 28 1012.8
20260508223701 30 269 4.8 6.4 0.00 0.00 0.00 29 1012.9
20260508223158 30 240 4.8 6.4 0.00 0.00 0.00 27 1013.0
20260508222655 30 266 8.0 11.3 0.00 0.00 0.00 28 1013.0
20260508222153 29 263 6.4 9.7 0.00 0.00 0.00 29 1013.0
20260508221648 30 275 8.0 9.7 0.00 0.00 0.00 29 1013.3
20260508221144 30 242 6.4 11.3 0.00 0.00 0.00 30 1013.2
20260508220641 29 240 11.3 12.9 0.00 0.00 0.00 29 1013.1
20260508220138 30 297 8.0 9.7 0.00 0.00 0.00 30 1013.2
20260508215634 30 251 8.0 9.7 0.00 0.00 0.00 29 1013.4
20260508215131 30 275 4.8 6.4 0.00 0.00 0.00 31 1013.4
20260508214628 30 254 8.0 9.7 0.00 0.00 0.00 30 1013.7
20260508214125 29 269 8.0 9.7 0.00 0.00 0.00 29 1013.6
20260508213622 29 260 11.3 12.9 0.00 0.00 0.00 31 1013.8
20260508213118 29 271 6.4 8.0 0.00 0.00 0.00 30 1013.6
20260508212615 28 246 4.8 6.4 0.00 0.00 0.00 31 1013.8
20260508212111 29 240 11.3 17.7 0.00 0.00 0.00 30 1013.7
20260508211606 28 276 4.8 6.4 0.00 0.00 0.00 32 1013.8
20260508211103 29 273 3.2 3.2 0.00 0.00 0.00 33 1013.9
20260508210559 28 252 4.8 8.0 0.00 0.00 0.00 34 1014.0
20260508210057 28 272 9.7 12.9 0.00 0.00 0.00 35 1014.2
20260508205554 28 271 4.8 6.4 0.00 0.00 0.00 36 1014.0
20260508205050 28 261 3.2 3.2 0.00 0.00 0.00 35 1014.0
20260508204547 28 288 8.0 11.3 0.00 0.00 0.00 33 1014.0
20260508204043 28 256 1.6 1.6 0.00 0.00 0.00 35 1013.9
20260508203539 28 248 3.2 3.2 0.00 0.00 0.00 35 1014.4
20260508203035 28 256 3.2 3.2 0.00 0.00 0.00 35 1014.3
20260508202532 28 255 3.2 3.2 0.00 0.00 0.00 34 1014.3
20260508202029 28 259 3.2 6.4 0.00 0.00 0.00 36 1014.1
20260508201526 28 334 1.6 3.2 0.00 0.00 0.00 36 1014.3
20260508201022 27 312 6.4 8.0 0.00 0.00 0.00 37 1014.4
20260508200520 27 277 3.2 6.4 0.00 0.00 0.00 35 1014.5
20260508200015 27 227 8.0 9.7 0.00 0.00 0.00 38 1014.6
20260508195512 27 333 0.0 0.0 0.00 0.00 0.00 37 1014.5
20260508195008 27 246 3.2 3.2 0.00 0.00 0.00 36 1014.9
20260508194506 27 303 9.7 9.7 0.00 0.00 0.00 39 1014.9
20260508194003 26 257 4.8 6.4 0.00 0.00 0.00 40 1015.1
20260508193459 26 203 4.8 6.4 0.00 0.00 0.00 39 1015.0
20260508192955 26 244 6.4 8.0 0.00 0.00 0.00 40 1015.1
20260508192452 26 265 6.4 8.0 0.00 0.00 0.00 39 1014.9
20260508191949 26 217 1.6 1.6 0.00 0.00 0.00 40 1015.0
20260508191446 26 240 4.8 6.4 0.00 0.00 0.00 40 1014.9
20260508190943 26 260 4.8 6.4 0.00 0.00 0.00 42 1015.0
20260508190441 26 242 4.8 6.4 0.00 0.00 0.00 42 1015.1
20260508185936 26 245 8.0 9.7 0.00 0.00 0.00 42 1015.2
20260508185434 25 245 3.2 6.4 0.00 0.00 0.00 44 1015.1
20260508184931 25 273 8.0 11.3 0.00 0.00 0.00 42 1015.4
20260508184429 25 251 9.7 11.3 0.00 0.00 0.00 43 1015.3
20260508183925 25 239 6.4 8.0 0.00 0.00 0.00 43 1015.6
20260508183422 25 256 4.8 8.0 0.00 0.00 0.00 45 1015.5
20260508182917 25 276 3.2 3.2 0.00 0.00 0.00 45 1015.5
20260508182415 25 266 1.6 1.6 0.00 0.00 0.00 45 1015.6
20260508181909 25 208 3.2 3.2 0.00 0.00 0.00 47 1015.6
20260508181407 25 244 3.2 3.2 0.00 0.00 0.00 47 1015.6
20260508180904 25 260 3.2 6.4 0.00 0.00 0.00 48 1015.6
20260508180401 24 236 3.2 3.2 0.00 0.00 0.00 50 1015.8
20260508175856 24 273 8.0 11.3 0.00 0.00 0.00 49 1015.8
20260508175353 23 299 3.2 6.4 0.00 0.00 0.00 51 1015.9
20260508174851 23 271 4.8 8.0 0.00 0.00 0.00 51 1016.0
20260508174348 23 297 3.2 3.2 0.00 0.00 0.00 51 1015.9
20260508173845 23 256 6.4 8.0 0.00 0.00 0.00 52 1015.9
20260508173342 23 274 3.2 6.4 0.00 0.00 0.00 53 1015.8
20260508172838 22 254 8.0 11.3 0.00 0.00 0.00 55 1015.7
20260508172335 22 268 4.8 8.0 0.00 0.00 0.00 55 1015.9
20260508171831 22 318 3.2 3.2 0.00 0.00 0.00 55 1016.0
20260508171328 22 255 6.4 6.4 0.00 0.00 0.00 56 1016.0
20260508170825 22 260 1.6 1.6 0.00 0.00 0.00 58 1015.9
20260508170323 21 306 1.6 3.2 0.00 0.00 0.00 58 1015.8
20260508165819 21 271 1.6 1.6 0.00 0.00 0.00 58 1015.8
20260508165317 21 312 3.2 3.2 0.00 0.00 0.00 58 1015.8
20260508164812 21 278 6.4 8.0 0.00 0.00 0.00 59 1015.9
20260508164309 20 247 4.8 6.4 0.00 0.00 0.00 60 1016.0
20260508163808 21 235 3.2 3.2 0.00 0.00 0.00 59 1015.9
20260508163305 20 195 3.2 6.4 0.00 0.00 0.00 60 1016.0
20260508162801 20 250 8.0 9.7 0.00 0.00 0.00 62 1016.0
20260508162257 20 281 8.0 9.7 0.00 0.00 0.00 62 1016.0
20260508161754 20 267 8.0 9.7 0.00 0.00 0.00 62 1016.0
20260508161252 20 285 3.2 3.2 0.00 0.00 0.00 64 1015.9
20260508160749 20 253 4.8 6.4 0.00 0.00 0.00 64 1016.1
20260508160247 19 306 1.6 1.6 0.00 0.00 0.00 65 1016.2
20260508155744 19 271 3.2 3.2 0.00 0.00 0.00 66 1016.1
20260508155241 18 267 1.6 1.6 0.00 0.00 0.00 67 1015.9
20260508154737 18 250 4.8 6.4 0.00 0.00 0.00 67 1016.1
20260508154235 18 260 4.8 6.4 0.00 0.00 0.00 68 1016.1
20260508153726 18 242 3.2 3.2 0.00 0.00 0.00 69 1016.1
20260508153223 17 265 1.6 3.2 0.00 0.00 0.00 71 1016.4
20260508152720 17 271 1.6 3.2 0.00 0.00 0.00 72 1016.1
20260508152215 16 246 3.2 6.4 0.00 0.00 0.00 73 1016.0
20260508151712 16 266 3.2 6.4 0.00 0.00 0.00 74 1015.9
20260508151209 16 261 8.0 8.0 0.00 0.00 0.00 74 1016.3
20260508150706 16 241 4.8 6.4 0.00 0.00 0.00 74 1015.8
20260508150203 16 271 1.6 1.6 0.00 0.00 0.00 75 1016.1
20260508145658 16 258 1.6 1.6 0.00 0.00 0.00 75 1016.1
20260508145154 15 259 3.2 3.2 0.00 0.00 0.00 75 1016.0
20260508144652 15 60 0.0 0.0 0.00 0.00 0.00 76 1016.0
20260508144150 15 267 3.2 3.2 0.00 0.00 0.00 77 1016.0
20260508143647 15 259 1.6 1.6 0.00 0.00 0.00 77 1016.1
20260508143144 15 241 1.6 3.2 0.00 0.00 0.00 77 1016.0
20260508142640 15 265 6.4 8.0 0.00 0.00 0.00 77 1015.8
20260508142137 15 249 4.8 6.4 0.00 0.00 0.00 77 1015.8
20260508141633 15 257 1.6 1.6 0.00 0.00 0.00 77 1015.7
20260508141131 15 269 1.6 1.6 0.00 0.00 0.00 77 1015.7
20260508140629 15 322 1.6 1.6 0.00 0.00 0.00 79 1015.6
20260508140125 14 258 4.8 6.4 0.00 0.00 0.00 80 1015.3
20260508135620 14 291 3.2 3.2 0.00 0.00 0.00 80 1015.4
20260508135117 13 277 3.2 3.2 0.00 0.00 0.00 82 1015.4
20260508134614 13 301 1.6 1.6 0.00 0.00 0.00 82 1015.5
20260508134111 13 25 0.0 0.0 0.00 0.00 0.00 82 1015.2
20260508133607 13 35 0.0 0.0 0.00 0.00 0.00 81 1015.2
20260508133105 13 39 0.0 0.0 0.00 0.00 0.00 82 1015.3
20260508132603 13 51 0.0 0.0 0.00 0.00 0.00 81 1015.1
20260508132059 13 51 0.0 0.0 0.00 0.00 0.00 81 1015.2
20260508131554 13 51 0.0 0.0 0.00 0.00 0.00 81 1015.1
20260508131052 13 51 0.0 0.0 0.00 0.00 0.00 81 1014.9
20260508130548 13 52 0.0 0.0 0.00 0.00 0.00 81 1015.0
20260508130045 13 52 0.0 0.0 0.00 0.00 0.00 80 1015.1
20260508125540 13 52 0.0 0.0 0.00 0.00 0.00 80 1014.9
20260508125038 13 52 0.0 0.0 0.00 0.00 0.00 80 1014.9
20260508124536 13 52 0.0 1.6 0.00 0.00 0.00 80 1014.8
20260508124033 13 50 0.0 0.0 0.00 0.00 0.00 80 1014.7
20260508123532 13 36 0.0 0.0 0.00 0.00 0.00 80 1014.8
20260508123028 13 35 0.0 0.0 0.00 0.00 0.00 79 1014.6
20260508122525 14 38 0.0 1.6 0.00 0.00 0.00 79 1014.8
20260508122022 14 38 1.6 1.6 0.00 0.00 0.00 79 1014.7
20260508121520 15 33 0.0 1.6 0.00 0.00 0.00 79 1014.6
20260508121018 15 340 0.0 0.0 0.00 0.00 0.00 79 1014.5
20260508120515 15 1 0.0 0.0 0.00 0.00 0.00 79 1014.5
20260508120013 15 274 1.6 1.6 0.00 0.00 0.00 79 1014.7
20260508115510 15 330 0.0 0.0 0.00 0.00 0.00 78 1014.6
20260508115007 14 242 0.0 1.6 0.00 0.00 0.00 79 1014.7
20260508114504 14 261 1.6 3.2 0.00 0.00 0.00 80 1014.7
20260508114000 14 40 0.0 0.0 0.00 0.00 0.00 81 1014.7
20260508113458 14 43 0.0 0.0 0.00 0.00 0.00 81 1014.7
20260508112955 14 44 0.0 0.0 0.00 0.00 0.00 81 1014.8
20260508112451 14 50 0.0 0.0 0.00 0.00 0.00 81 1014.7
20260508111948 14 51 0.0 0.0 0.00 0.00 0.00 81 1014.7
20260508111445 14 39 0.0 0.0 0.00 0.00 0.00 81 1014.7
20260508110942 14 40 0.0 0.0 0.00 0.00 0.00 82 1014.6
20260508110440 14 60 0.0 0.0 0.00 0.00 0.00 82 1014.5
20260508105939 14 45 0.0 0.0 0.00 0.00 0.00 83 1014.6
20260508105436 15 43 0.0 0.0 0.00 0.00 0.00 83 1014.7
20260508104933 15 43 0.0 0.0 0.00 0.00 0.00 83 1014.5
20260508104431 15 43 0.0 0.0 0.00 0.00 0.00 83 1014.5
20260508103927 15 42 0.0 0.0 0.00 0.00 0.00 83 1014.5
20260508103424 15 27 0.0 0.0 0.00 0.00 0.00 83 1014.7
20260508102921 15 26 0.0 0.0 0.00 0.00 0.00 82 1014.3
20260508102420 15 26 0.0 0.0 0.00 0.00 0.00 82 1014.4
20260508101917 16 13 0.0 0.0 0.00 0.00 0.00 81 1014.5
20260508101414 16 312 0.0 0.0 0.00 0.00 0.00 81 1014.2
20260508100911 16 312 0.0 0.0 0.00 0.00 0.00 80 1014.5
20260508100410 16 2 0.0 0.0 0.00 0.00 0.00 80 1014.2
20260508095905 16 257 0.0 0.0 0.00 0.00 0.00 80 1014.2
20260508095403 16 297 1.6 1.6 0.00 0.00 0.00 80 1014.2
20260508094900 16 264 1.6 1.6 0.00 0.00 0.00 81 1014.2
20260508094356 16 294 0.0 0.0 0.00 0.00 0.00 81 1014.3
20260508093853 16 315 0.0 0.0 0.00 0.00 0.00 82 1014.1
20260508093351 16 315 0.0 0.0 0.00 0.00 0.00 81 1014.4
20260508092848 17 315 0.0 0.0 0.00 0.00 0.00 81 1014.0
20260508092346 17 315 0.0 0.0 0.00 0.00 0.00 80 1014.1
20260508091844 17 254 1.6 1.6 0.00 0.00 0.00 80 1014.2
20260508091340 17 11 0.0 0.0 0.00 0.00 0.00 79 1014.0
20260508090838 17 282 0.0 1.6 0.00 0.00 0.00 79 1014.1